Minot, ND

4:37 AM CDT on April 29, 2017 (GMT -0500)
Minot International

Weather History for KMOT - May, 2014

Change the Weather History Date:

Thursday, May 22, 2014

  Actual Average Record
Temperature  
Mean Temperature 62 °F 57 °F  
Max Temperature 78 °F 68 °F 100 °F (1928)
Min Temperature 46 °F 45 °F 26 °F (1917)
Degree Days  
Heating Degree Days 4    
Cooling Degree Days 0 0  
Month to date cooling degree days 0 0  
Year to date cooling degree days 0 1  
Growing Degree Days 12 (Base 50)    
Moisture  
Dew Point 43 °F    
Average Humidity 55    
Maximum Humidity 82    
Minimum Humidity 28    
Precipitation  
Precipitation 0.00 in 0.08 in 3.00 in (1903)
Month to date precipitation 1.57 1.66  
Year to date precipitation 3.78 4.55  
Sea Level Pressure  
Sea Level Pressure 30.10 in    
Wind  
Wind Speed 9 mph (SSE)    
Max Wind Speed 21 mph    
Max Gust Speed 26 mph    
Visibility 10 miles    
Events      
T = Trace of Precipitation, MM = Missing Value Source: NWS Daily Summary

Daily Weather History Graph

Daily Weather History Graph

Search for Another Location

Airport or City:

Trip Planner

Search our weather history database for the weather conditions in past years. The results will help you decide how hot, cold, wet, or windy it might be!

Date:

Astronomy

May. 22, 2014 Rise Set
Actual Time 5:57 AM CDT 9:27 PM CDT
Civil Twilight 5:18 AM CDT 10:05 PM CDT
Nautical Twilight 4:27 AM CDT 10:57 PM CDT
Astronomical Twilight 3:18 AM CDT 12:07 AM CDT
Moon 2:48 AM CDT (5/22) 2:47 PM CDT (5/22)
Length of Visible Light 16h 47m
Length of Day
15h 29m
Last Quarter, 37% of the Moon is Illuminated
May 22
Last Quarter
May 28
New
Jun 5
First Quarter
Jun 12
Full
Jun 19
Last Quarter

Hourly Weather History & Observations

Time (CDT) Temp. Windchill Dew Point Humidity Pressure Visibility Wind Dir Wind Speed Gust Speed Precip Events Conditions
12:54 AM 48.9 °F - 42.1 °F 77% 30.14 in 10.0 mi SSE 5.8 mph - N/A   Clear
1:54 AM 48.0 °F - 41.0 °F 77% 30.14 in 10.0 mi SE 5.8 mph - N/A   Clear
2:54 AM 46.9 °F - 41.0 °F 80% 30.14 in 10.0 mi SSE 5.8 mph - N/A   Clear
3:54 AM 48.0 °F - 41.0 °F 77% 30.13 in 10.0 mi SSE 3.5 mph - N/A   Clear
4:54 AM 46.0 °F 43.1 °F 39.9 °F 79% 30.14 in 10.0 mi SE 5.8 mph - N/A   Clear
5:54 AM 46.0 °F 43.9 °F 39.0 °F 76% 30.14 in 10.0 mi SE 4.6 mph - N/A   Clear
6:54 AM 46.9 °F - 41.0 °F 80% 30.14 in 10.0 mi SSE 4.6 mph - N/A   Clear
7:54 AM 52.0 °F - 43.0 °F 71% 30.13 in 10.0 mi SE 5.8 mph - N/A   Clear
8:54 AM 59.0 °F - 46.0 °F 62% 30.14 in 10.0 mi SSE 5.8 mph - N/A   Clear
9:54 AM 66.9 °F - 46.9 °F 49% 30.14 in 10.0 mi South 10.4 mph - N/A   Clear
10:54 AM 70.0 °F - 45.0 °F 41% 30.14 in 10.0 mi South 11.5 mph - N/A   Clear
11:54 AM 72.0 °F - 43.0 °F 35% 30.13 in 10.0 mi South 12.7 mph - N/A   Clear
12:54 PM 73.0 °F - 41.0 °F 31% 30.12 in 10.0 mi South 11.5 mph - N/A   Clear
1:54 PM 75.0 °F - 42.1 °F 31% 30.10 in 10.0 mi SE 9.2 mph 20.7 mph N/A   Partly Cloudy
2:54 PM 75.9 °F - 42.1 °F 30% 30.10 in 10.0 mi SE 12.7 mph 23.0 mph N/A   Clear
3:54 PM 77.0 °F - 41.0 °F 28% 30.09 in 10.0 mi South 16.1 mph 19.6 mph N/A   Clear
4:54 PM 77.0 °F - 42.1 °F 29% 30.08 in 10.0 mi South 13.8 mph - N/A   Clear
5:54 PM 77.0 °F - 43.0 °F 30% 30.06 in 10.0 mi South 16.1 mph - N/A   Scattered Clouds
6:54 PM 75.0 °F - 46.0 °F 36% 30.06 in 10.0 mi SSE 10.4 mph - N/A   Overcast
7:54 PM 73.9 °F - 46.0 °F 37% 30.05 in 10.0 mi SE 11.5 mph - N/A   Partly Cloudy
8:54 PM 71.1 °F - 46.9 °F 42% 30.04 in 10.0 mi ESE 10.4 mph - N/A   Clear
9:54 PM 66.0 °F - 48.0 °F 52% 30.05 in 10.0 mi ESE 9.2 mph - N/A   Clear
10:54 PM 63.0 °F - 46.9 °F 56% 30.06 in 10.0 mi SE 6.9 mph - N/A   Clear
11:54 PM 60.1 °F - 48.0 °F 64% 30.05 in 10.0 mi ESE 5.8 mph - N/A   Partly Cloudy